Regional Weather Roundup
Issued by NWS Green Bay, WI

Home | Current Version | Previous Version | Graphics & Text | Print | Product List | Glossary Off
Versions: 1 2 3 4 5 6 7 8 9 10 11 12 13 14 15 16 17 18 19 20 21 22 23 24 25 26 27 28 29 30 31 32 33 34 35 36 37 38 39 40 41 42 43 44 45 46 47 48 49 50

736
ASUS43 KGRB 201500
RWRGRB

NORTH-CENTRAL AND NORTHEAST WISCONSIN REGIONAL WEATHER ROUNDUP
NATIONAL WEATHER SERVICE GREEN BAY WI
1000 AM CDT FRI OCT 20 2017

WIZ005-009-010>012-018-019-201600-
NORTH CENTRAL WISCONSIN

CITY           SKY/WX    TMP DP  RH WIND       PRES   REMARKS
IRONWOOD       SUNNY     62  48  60 S8G16     29.91F
MANITOWISH WTR NOT AVBL
ARBOR VITAE    NOT AVBL
EAGLE RIVER    NOT AVBL
LAND O LAKES   NOT AVBL
RHINELANDER    SUNNY     60  49  66 SW13      30.01S
PHILLIPS       NOT AVBL
ANTIGO         NOT AVBL
TOMAHAWK       NOT AVBL
MERRILL        NOT AVBL
$$

WIZ013-073-201600-
NORTHEAST WISCONSIN

CITY           SKY/WX    TMP DP  RH WIND       PRES   REMARKS
IRON MOUNTAIN  SUNNY     55  40  56 S5        30.00F
MARINETTE      SUNNY     62  49  62 MISG      30.05F
$$

WIZ017-030-035>037-045-201600-
CENTRAL WISCONSIN

CITY           SKY/WX    TMP DP  RH WIND       PRES   REMARKS
MEDFORD        NOT AVBL
WAUSAU         SUNNY     59  49  69 VRB3      30.01F
MOSINEE        SUNNY     59  52  77 S8        30.04F
MARSHFIELD     SUNNY     61  49  64 S13       30.02S
WISC RAPIDS    SUNNY     62  51  67 SW10      30.05S
STEVENS POINT  NOT AVBL
WAUPACA        NOT AVBL
SHAWANO        NOT AVBL
CLINTONVILLE   NOT AVBL
WAUTOMA        SUNNY     58  49  72 SW5       30.07F
$$

WIZ038-039-048-051-201600-
FOX VALLEY

CITY           SKY/WX    TMP DP  RH WIND       PRES   REMARKS
NWS GREEN BAY  SUNNY     62  52  69 S12       30.07S
APPLETON       SUNNY     63  46  55 SW10      30.06F
OSHKOSH        SUNNY     62  51  67 S14       30.07F
FOND DU LAC    SUNNY     65  48  54 S9G17     30.09F
$$

WIZ022-050-052-201600-
EAST CENTRAL WISCONSIN

CITY           SKY/WX    TMP DP  RH WIND       PRES   REMARKS
EPHRAIM        NOT AVBL
WASHINGTON ISL NOT AVBL
STURGEON BAY   SUNNY     63  49  60 SW10      30.06F
MANITOWOC      SUNNY     64  50  60 S7        30.09F
SHEBOYGAN      SUNNY     65  53  65 SW9       30.11S
$$

LMZ563-521-522-541>543-201600-
LAKESHORE

STATION/POSITION TIME  TEMP    WIND        PRES    VSBY  WAVE
                       AIR SEA DIR/SP/G                  HT/PER
                 (UTC) (F)     (DEG/KT/KT) (MB)    (MI)  (FT/S)
SHEBOYGAN LKSHOR 1400   55     180/  9/ 10 1019.6R
KEWAUNEE LKSHORE 1412   53     180/  7/  8 1017.8
N MID LAKE BUOY  1350   60 58  190/ 16/ 19 1018.4F         4/ 6
S GREEN BAY BUOY 1430   58 58  210/ 12/ 14 1017.5S
SISTER BAY LKSHO 1419   65     180/  5/  7   N/A
MENOMINEE LKSHOR 1412   59     180/  8/ 12 1017.1
$$




USA.gov is the U.S. government's official web portal to all federal, state and local government web resources and services.